Content
SEND FEEDBACK

Daily
Averages
Monthly
Summary
India

HYDERABAD, INDIA


Home > Asia > India
Elevation: 1788 feet     Latitude: 17 27N     Longitude: 078 28E

WEATHER
 
SELECT A DAY
Number of Records: 125,574;   Date Range: 12/24/96 - 7/27/14
 
SHARE

PRINT THIS DATA

[ ← Previous Day ]
WEATHER ALMANAC - APRIL 8, 2013
[ Next Day → ]
[ °C ]   °F
Weather ElementAverageHighLow
Temperature94.8 °F104 °F (2:40 pm)80.6 °F (6:10 am)
Dewpoint64.1 °F75 °F (5:30 am)56 °F (8:30 pm)
Humidity35.8 %70 % (5:30 am)19 % (2:30 pm)
Barometer29.79 in29.92 in (10:10 am)29.63 in (5:30 pm)
Wind Speed4.4 mph9.2 mph (8:10 pm)
Weather ElementAverage
Visibility3.8 mi
Wind DirectionESE (126.3 °)

Weather ElementTotal
Precipitation---
Cooling Degree Days27.3 (Base 65)
Growing Degree Days42.3 (Base 50)
Averaged from 20 records on April 8, 2013
WEATHER CONDITIONS BREAKOUT
WIND DIRECTION BREAKOUT
WEATHER BY HOUR - APRIL 8, 2013
[ °C ]   °F
Local TimeTemperatureDewpointHumidityBarometerVisibilityWind DirectionWind SpeedGust SpeedPrecipitationEventsConditions
5:30 AM83.0 °F75.0 °F70 %29.69 in2.0 miCalmHaze
6:10 AM80.6 °F68.0 °F65 %29.83 in1.9 miCalmHaze
7:10 AM82.4 °F68.0 °F62 %29.86 in1.9 miCalmHaze
8:30 AM86.0 °F72.0 °F54 %29.81 in2.0 miNorth3.5 mphHaze
10:10 AM95.0 °F68.0 °F41 %29.92 in3.1 miWNW (300°)3.5 mphHaze
11:30 AM95.0 °F70.0 °F35 %29.77 in6.0 miSE (140°)3.5 mphScattered Clouds
12:10 PM102.2 °F68.0 °F33 %29.89 in3.7 miWest (270°)3.5 mph
1:10 PM102.2 °F68.0 °F33 %29.83 in5.0 miSSW (210°)8.1 mph
2:30 PM100.0 °F62.0 °F19 %29.66 in6.0 miSE (140°)3.5 mphScattered Clouds
2:40 PM104.0 °F62.6 °F26 %29.80 in5.0 miSSE (150°)4.6 mphScattered Clouds
3:10 PM104.0 °F60.8 °F24 %29.77 in5.0 miESE (110°)4.6 mphScattered Clouds
4:10 PM104.0 °F57.2 °F21 %29.77 in5.0 miEast (90°)8.1 mphScattered Clouds
5:10 PM102.2 °F57.2 °F22 %29.77 in5.0 miEast (90°)8.1 mphScattered Clouds
5:30 PM98.0 °F64.0 °F24 %29.63 in6.0 miSE (140°)2.3 mphScattered Clouds
6:10 PM98.6 °F59.0 °F27 %29.77 in3.7 miEast (90°)5.8 mphPartly Cloudy
7:10 PM95.0 °F59.0 °F30 %29.80 in3.7 miEast (100°)5.8 mphPartly Cloudy
8:10 PM93.2 °F59.0 °F32 %29.83 in3.7 miSSE (160°)9.2 mphScattered Clouds
8:30 PM92.0 °F56.0 °F21 %29.73 in2.0 miSE (140°)3.5 mphPartly Cloudy
9:10 PM91.4 °F60.8 °F36 %29.86 in3.7 miSE (130°)6.9 mphScattered Clouds
11:30 PM87.0 °F67.0 °F41 %29.80 in2.0 miSE (140°)3.5 mphPartly Cloudy
Hourly data recorded from VOHY, located miles away from Hyderabad, India







STORIES FROM OUR PARTNERS